Temperature
15 15 15 15 15 15 15 15 15 15 15 15 15 15 15 15 15 15 15 15 15 15 15 15 15 15 15 15 15 15 15 15 15 15 15 15 15 15 14 14 15 14 14
15 15 15 15 15 15 15 15 15 15 15 15 15 15 15 15 15 15 15 15 15 15 15 15 15 15 14 15 15 15 14 14 14 14 14 14 14 14 14 14 14 14 14
15 15 15 15 15 15 15 15 15 15 15 15 15 15 15 15 14 14 14 14 15 15 15 15 15 14 14 14 14 14 14 14 14 14 14 14 14 14 14 14 14 14 14
15 15 15 15 15 15 15 15 15 15 15 14 14 14 14 14 14 14 14 14 14 14 14 14 14 14 14 14 14 14 14 14 14 14 14 14 14 14 14 14 14 14 14
15 15 15 15 14 14 14 14 14 14 14 14 14 14 14 14 14 14 14 14 14 14 14 14 14 14 14 14 14 14 14 14 14 14 14 13 13 13 13 13 14 14 13
14 14 14 14 14 14 14 14 14 14 14 14 14 14 14 14 14 14 14 14 14 14 14 14 14 14 14 14 14 14 14 13 13 13 13 13 13 13 13 13 13 13 13
14 14 14 14 14 14 14 14 14 14 14 14 14 14 14 14 14 14 14 14 14 14 14 14 14 14 14 14 14 13 13 13 13 13 13 13 13 13 13 13 13 13 13
14 14 14 14 13 13 13 13 13 14 13 14 14 14 13 13 13 13 13 13 13 13 13 13 13 13 13 13 13 13 13 13 13 13 13 13 13 13 13 13 13 13 13
14 14 14 13 13 13 13 13 13 13 13 13 13 13 13 13 13 13 13 13 13 13 13 13 13 13 13 13 13 13 13 13 13 13 12 13 13 12 13 12 12 12 12
13 13 13 13 13 13 13 13 13 13 13 13 13 13 13 13 13 12 13 13 13 13 13 13 13 13 13 13 13 13 13 13 13 13 13 12 12 12 12 12 12 12 12
13 13 13 13 13 13 13 13 13 13 13 13 13 13 13 13 13 13 12 12 12 12 12 12 13 13 13 12 12 12 12 12 12 12 12 12 12 12 12 12 12 12 12
13 13 13 13 13 13 13 13 13 13 13 13 13 13 13 13 13 13 12 12 12 12 12 12 12 12 12 12 12 12 12 12 12 12 12 12 12 12 12 12 12 12 11
13 13 13 13 13 13 13 13 13 13 13 13 13 13 13 13 13 13 13 12 12 12 12 12 12 12 12 12 12 12 12 12 12 12 12 12 12 12 12 12 11 11 11
13 13 13 13 13 13 13 13 13 13 13 13 13 13 13 13 13 13 13 12 12 12 12 12 12 12 12 12 12 12 12 12 12 12 12 11 12 12 12 11 11 11 11
13 13 13 13 13 13 13 13 13 13 13 13 13 13 13 13 13 13 12 12 12 11 11 12 11 11 12 12 12 12 12 12 11 11 11 11 11 11 11 11 11 11 11
13 13 13 13 13 13 13 13 12 13 13 13 13 12 12 12 12 12 12 12 12 12 11 11 11 11 11 11 11 11 11 11 11 11 11 11 11 11 11 11 11 11 11
13 12 12 13 13 13 12 12 12 12 12 12 12 12 12 12 12 12 12 12 12 12 12 12 12 11 11 11 11 11 11 11 11 11 11 11 11 11 11 11 10 10 10
12 12 12 12 12 12 12 12 12 12 12 12 12 12 12 12 12 12 12 12 12 12 12 12 12 11 11 11 11 11 11 11 11 11 11 11 11 11 11 11 10 10 10
12 12 12 12 12 12 12 12 12 12 12 12 12 12 12 12 12 12 12 12 11 11 11 11 11 11 11 11 11 11 11 11 10 11 10 10 10 11 10 10 10 10 10
12 12 12 12 12 12 12 12 12 11 11 11 11 11 11 11 11 11 11 11 11 11 11 11 11 11 11 11 11 11 11 11 10 10 11 10 10 10 10 10 10 10 10
11 11 11 11 11 11 11 11 11 11 11 11 11 11 11 11 11 11 11 11 11 11 11 11 11 11 10 10 10 10 10 10 10 10 10 10 10 10 10 10 10 10 10
11 11 11 11 11 11 11 11 11 11 11 11 11 11 11 10 11 11 11 11 10 10 10 10 10 10 10 10 10 10 10 10 10 10 10 10 10 10 10 10 10 10 10
11 11 10 10 10 10 10 10 10 10 10 10 10 10 10 10 10 10 10 10 10 10 10 10 10 10 10 10 10 10 10 10 10 10 10 10 10 10 10 10 10 10 10
10 10 10 10 10 10 10 10 10 10 10 10 10 10 10 10 10 10 10 10 10 10 10 10 9 10 10 9 9 9 9 9 9 9 9 9 9 10 10 10 10 10 9
10 10 10 9 9 9 9 9 9 9 10 10 10 10 10 10 10 9 9 9 9 9 9 9 9 9 9 9 9 9 9 9 9 9 9 9 9 9 9 10 9 9 9
9 9 9 9 9 9 9 9 9 9 9 9 9 9 9 9 9 9 9 9 9 9 9 9 9 9 9 9 9 9 9 9 9 9 9 9 9 9 9 9 9 9 9
Wind_Speed
3 3 3 4 5 5 5 5 5 6 6 6 7 6 6 6 6 7 7 9 9 8 8 8 8 8 9 9 10 11 11 12 12 12 12 12 13 13 12 11 11 10 10
3 3 3 3 4 4 5 5 5 4 4 5 6 6 6 6 6 6 7 9 11 10 9 8 8 8 9 9 10 10 10 11 11 11 12 12 12 12 11 11 11 11 11
3 3 2 3 3 4 5 6 6 5 4 4 5 5 5 6 6 6 7 8 8 10 10 9 8 8 9 9 9 10 10 10 10 11 11 11 11 11 11 11 12 12 12
4 4 3 2 3 5 5 4 3 4 4 4 4 4 4 4 5 6 7 8 8 8 10 10 8 8 8 8 8 8 9 9 9 10 10 10 10 10 11 11 12 12 12
5 4 3 3 4 4 3 3 3 3 3 3 3 4 4 4 4 5 6 7 8 8 8 9 10 9 8 8 7 8 8 8 9 9 9 9 9 10 11 11 11 12 11
5 5 3 3 4 3 3 3 4 3 3 2 4 5 4 4 4 4 4 6 7 8 8 8 8 8 8 7 7 7 8 8 8 8 9 9 9 10 11 11 11 11 11
4 4 3 3 3 3 3 3 3 3 2 2 3 3 4 5 5 4 4 5 6 7 8 8 8 8 7 8 7 7 7 7 8 9 9 9 10 10 10 10 10 10 11
3 4 3 2 2 3 4 3 3 2 1 2 2 2 2 4 4 5 4 4 5 6 6 7 7 7 7 7 7 8 7 7 8 9 9 9 9 9 9 9 10 10 10
2 3 3 3 3 3 3 2 2 3 2 1 1 2 2 1 1 3 3 4 4 4 4 5 6 6 6 6 7 8 8 8 8 8 8 8 8 8 8 9 9 10 10
2 2 3 3 3 2 2 2 2 2 3 1 1 2 1 3 2 1 2 3 3 3 3 4 5 5 6 5 6 7 7 8 8 7 8 8 9 9 9 9 9 9 9
1 1 2 2 2 2 2 2 2 2 2 2 2 1 2 2 2 2 0 2 2 2 2 3 4 4 5 5 5 6 7 7 8 8 7 8 8 8 9 9 9 9 9
0 0 1 1 2 2 2 2 2 3 2 2 2 2 2 2 2 2 2 0 1 2 2 2 2 2 3 4 5 6 7 7 7 7 8 8 8 8 8 8 7 8 7
1 2 1 1 1 2 2 2 2 2 2 3 3 2 2 2 2 2 3 2 0 1 2 1 2 2 2 3 4 5 6 6 6 7 7 7 7 7 7 7 7 7 7
2 2 2 2 2 2 2 2 2 2 2 2 2 2 2 2 2 2 3 3 1 1 1 2 1 1 1 2 3 4 5 5 5 5 5 6 6 6 6 6 6 6 6
1 1 2 2 1 2 2 2 2 1 2 2 2 2 2 2 2 2 2 3 4 2 2 1 1 1 1 2 3 4 3 4 4 5 4 5 5 5 5 5 5 5 5
1 1 1 2 2 2 2 2 1 1 2 1 2 2 2 1 2 2 2 2 2 3 2 2 1 0 1 2 3 3 4 4 3 3 4 4 4 4 4 5 5 4 4
1 2 2 2 2 2 2 3 2 2 2 1 1 2 2 2 2 2 2 2 2 2 2 1 0 0 1 1 2 3 2 2 2 2 3 3 3 3 3 4 3 3 3
2 2 2 2 2 2 3 4 3 3 3 3 2 2 2 2 2 2 2 2 2 2 3 3 1 1 1 1 2 2 2 1 1 1 2 2 2 2 2 2 2 2 2
2 1 2 2 3 3 3 4 4 3 3 3 3 4 3 3 2 2 2 3 2 2 2 3 2 1 1 1 1 1 1 1 1 2 1 1 1 1 1 1 2 2 1
1 1 2 2 2 3 3 3 3 3 3 2 3 3 4 4 5 4 3 3 3 3 3 3 2 1 1 1 2 2 0 0 1 1 1 2 2 2 2 2 2 2 2
1 1 1 1 1 2 3 3 3 3 3 2 2 2 3 4 5 4 3 4 4 3 3 3 2 2 2 2 3 3 2 0 1 1 1 1 2 2 3 4 4 3 3
0 0 1 2 2 2 2 3 3 3 3 3 2 2 2 3 3 4 5 6 6 5 5 4 3 3 4 4 3 3 3 2 2 2 1 2 1 2 4 5 5 5 5
1 0 1 1 1 2 1 1 3 3 2 2 2 2 2 2 2 2 3 4 5 6 6 5 5 5 5 5 5 5 4 4 3 3 2 2 1 3 5 6 7 7 7
1 1 1 2 2 1 1 1 1 2 2 2 3 4 3 3 3 3 3 3 3 4 5 5 5 5 5 5 6 6 5 3 1 1 3 3 2 3 3 5 8 9 9
1 1 1 1 2 2 1 1 1 2 2 3 3 3 3 3 4 4 4 4 3 3 4 5 5 4 4 5 6 4 3 3 2 2 3 3 2 2 2 3 6 8 10
2 1 1 1 2 3 3 1 0 2 2 2 2 3 4 4 5 5 5 5 5 4 3 2 2 2 3 4 7 6 6 4 2 3 4 3 2 1 2 2 3 5 7
Wind_Direction
67 59 54 52 51 59 69 71 69 68 65 65 68 69 64 58 50 44 38 44 52 59 64 72 77 80 81 80 80 79 76 76 74 76 77 80 81 81 80 81 81 82 81
85 76 62 59 54 60 73 82 80 73 63 64 58 58 58 57 50 47 43 41 47 53 58 64 70 74 78 81 82 81 80 79 77 77 80 83 83 82 81 80 78 78 78
99 95 81 68 66 73 78 81 75 75 70 65 56 52 54 51 48 45 45 42 42 45 49 56 62 67 74 80 82 84 82 80 79 78 81 82 83 82 81 80 77 75 75
106 98 91 81 83 86 84 79 69 73 67 62 56 44 45 44 44 48 49 46 43 39 40 45 49 59 70 78 84 87 87 85 84 82 80 80 82 81 80 79 77 76 75
106 102 95 85 92 88 81 86 70 81 80 71 66 52 43 42 37 49 48 45 45 43 41 39 44 49 62 72 81 85 88 92 92 90 85 82 84 84 82 80 78 75 74
109 103 95 87 96 93 81 78 82 69 79 81 78 60 45 42 42 42 45 46 44 45 46 43 39 40 51 63 73 79 86 92 94 93 90 86 84 84 82 80 78 77 74
115 110 105 100 103 108 112 107 97 85 66 62 74 54 38 41 46 40 44 49 42 43 49 47 44 42 43 51 61 76 85 87 91 90 87 86 85 85 83 79 78 78 74
124 128 125 126 119 114 108 106 109 111 78 53 94 89 36 15 20 31 37 45 39 42 44 45 48 46 46 47 50 66 76 85 90 89 88 87 86 84 81 81 78 77 74
121 126 140 133 128 128 140 147 141 128 137 58 69 125 131 188 349 5 30 40 36 38 32 37 44 44 49 50 52 66 72 77 87 88 89 88 87 83 81 84 81 80 75
118 136 145 146 150 148 153 172 149 136 135 145 67 54 110 147 141 16 0 19 28 36 24 27 36 44 49 54 62 70 74 74 82 86 90 89 86 83 82 81 77 77 75
64 129 156 158 163 163 170 171 151 148 144 150 148 125 88 69 97 138 168 349 8 11 15 21 39 42 47 56 63 66 69 75 79 82 87 89 87 85 81 81 78 76 74
326 71 182 174 173 169 180 184 173 161 157 144 141 142 150 151 164 147 160 202 337 334 356 21 34 42 53 60 68 70 74 76 77 82 80 81 84 82 80 79 78 78 75
245 245 210 192 187 191 187 175 172 175 167 156 162 165 162 167 159 151 144 154 154 320 343 4 14 39 64 70 72 78 83 80 78 79 79 79 82 81 80 78 78 78 76
222 218 199 195 195 185 181 161 168 191 166 167 173 161 158 169 160 160 157 150 138 355 355 314 353 30 69 92 95 95 90 84 84 86 82 84 83 80 78 77 76 73 74
235 190 180 179 184 162 157 146 161 197 171 182 184 178 178 181 169 171 158 155 156 174 235 269 309 355 76 108 104 106 104 97 87 89 86 86 86 83 79 77 79 77 73
225 182 182 202 196 169 157 153 163 180 165 188 186 173 182 188 171 159 161 155 151 163 195 224 218 271 138 113 114 112 112 97 94 95 95 89 89 88 84 84 82 84 76
201 198 203 199 204 197 176 168 183 172 169 187 186 175 189 176 164 160 152 150 148 148 179 227 160 53 130 113 101 111 114 108 105 109 108 100 94 91 93 93 92 92 86
226 215 206 199 203 203 192 186 194 191 188 195 199 180 194 176 164 164 163 172 174 171 172 183 188 173 168 170 139 129 123 135 182 166 136 126 116 102 101 118 121 117 106
242 238 212 209 217 211 203 201 194 195 197 203 200 193 196 176 183 183 177 179 181 172 164 167 177 158 149 140 127 119 95 59 216 200 195 198 198 178 144 172 181 165 158
234 240 233 228 229 218 206 201 193 194 198 210 207 202 197 191 197 192 186 183 170 160 156 160 165 160 161 155 146 153 158 311 274 223 231 248 241 231 234 231 228 213 206
245 242 237 252 244 217 206 200 195 196 195 206 217 221 218 215 205 190 186 177 165 164 165 168 173 165 177 173 192 181 186 219 277 239 270 281 261 248 246 243 239 236 229
259 215 229 234 240 249 237 204 188 186 190 197 216 243 247 232 215 207 199 182 172 171 180 182 192 198 207 202 184 181 168 165 247 231 187 273 230 245 245 239 242 237 232
192 143 226 236 242 262 275 221 211 189 192 209 217 226 239 229 211 207 210 199 197 198 188 184 193 207 205 198 183 188 193 196 213 201 169 242 243 256 251 243 242 238 235
194 198 219 233 236 273 330 264 216 189 201 224 225 219 212 217 215 196 186 192 209 217 216 208 210 219 213 194 190 193 193 181 158 198 172 215 233 253 267 250 243 239 238
220 235 230 221 226 263 286 285 233 198 216 239 238 228 211 211 226 209 189 197 217 244 243 227 226 229 219 199 179 152 155 171 223 231 196 199 226 263 277 260 251 242 240
221 234 265 261 249 264 289 295 267 198 221 243 248 241 234 227 234 214 198 195 212 230 221 217 225 239 220 202 191 188 186 191 196 225 202 192 206 193 271 271 264 252 243
Height
1532 1532 1532 1532 1532 1532 1532 1533 1533 1533 1533 1534 1534 1534 1534 1534 1534 1533 1533 1533 1533 1533 1532 1532 1532 1531 1531 1531 1530 1530 1530 1529 1529 1528 1528 1528 1529 1529 1530 1531 1532 1533 1534
1532 1532 1532 1532 1533 1533 1533 1534 1534 1534 1534 1535 1535 1535 1535 1535 1535 1535 1534 1534 1534 1534 1533 1533 1533 1532 1532 1532 1532 1532 1531 1531 1531 1531 1531 1531 1532 1532 1533 1533 1534 1534 1535
1533 1533 1533 1533 1533 1534 1534 1535 1535 1535 1536 1536 1536 1536 1536 1536 1536 1536 1536 1535 1535 1535 1534 1534 1534 1533 1533 1533 1533 1533 1533 1533 1533 1533 1533 1534 1534 1534 1534 1535 1535 1535 1535
1533 1534 1534 1534 1534 1534 1535 1535 1536 1536 1536 1537 1537 1537 1537 1537 1537 1537 1537 1537 1536 1535 1535 1535 1535 1534 1534 1534 1534 1534 1534 1534 1535 1535 1535 1535 1535 1536 1536 1536 1536 1536 1536
1534 1534 1534 1534 1534 1534 1534 1535 1536 1536 1537 1537 1537 1538 1538 1538 1538 1538 1538 1538 1537 1537 1536 1536 1536 1535 1535 1535 1536 1536 1536 1536 1536 1536 1537 1537 1537 1537 1537 1537 1537 1537 1537
1534 1534 1534 1534 1534 1534 1535 1535 1536 1536 1537 1537 1538 1538 1538 1538 1538 1538 1538 1538 1538 1538 1537 1537 1537 1537 1536 1536 1537 1537 1537 1537 1537 1538 1538 1538 1538 1538 1538 1538 1538 1538 1538
1534 1534 1533 1534 1534 1534 1535 1535 1536 1536 1537 1538 1538 1538 1539 1539 1539 1539 1539 1539 1539 1538 1538 1538 1538 1538 1538 1538 1538 1538 1538 1538 1538 1539 1539 1539 1539 1539 1539 1539 1539 1539 1538
1534 1534 1534 1534 1534 1535 1535 1535 1536 1536 1537 1537 1538 1538 1539 1540 1539 1539 1539 1539 1539 1539 1539 1539 1539 1538 1538 1539 1539 1539 1539 1539 1539 1540 1540 1540 1540 1540 1540 1540 1539 1539 1538
1533 1534 1534 1534 1534 1534 1535 1535 1535 1536 1536 1537 1538 1539 1539 1539 1539 1540 1539 1539 1539 1539 1539 1539 1539 1539 1539 1539 1540 1540 1540 1540 1540 1541 1541 1541 1541 1541 1541 1540 1540 1539 1539
1533 1533 1534 1534 1534 1534 1534 1535 1535 1536 1536 1536 1537 1538 1539 1539 1539 1539 1540 1539 1539 1539 1539 1539 1539 1539 1540 1540 1540 1541 1541 1541 1541 1542 1541 1541 1541 1541 1541 1540 1540 1540 1539
1532 1533 1533 1533 1533 1533 1534 1534 1534 1535 1535 1536 1536 1537 1537 1538 1538 1538 1538 1539 1539 1539 1539 1539 1539 1539 1540 1540 1540 1541 1541 1541 1542 1542 1542 1542 1542 1541 1541 1541 1540 1540 1539
1531 1531 1532 1532 1532 1533 1533 1533 1534 1534 1535 1535 1535 1536 1537 1537 1537 1537 1537 1538 1538 1539 1539 1539 1539 1539 1540 1540 1540 1541 1541 1541 1542 1541 1542 1542 1542 1541 1541 1541 1541 1540 1540
1529 1530 1530 1530 1531 1531 1532 1532 1533 1533 1534 1534 1535 1535 1535 1536 1536 1537 1537 1537 1538 1538 1538 1539 1539 1539 1539 1540 1540 1540 1541 1541 1541 1541 1542 1542 1542 1542 1541 1541 1541 1540 1540
1527 1528 1528 1529 1529 1530 1530 1531 1531 1532 1532 1533 1533 1534 1534 1534 1535 1535 1536 1536 1536 1537 1537 1538 1538 1538 1539 1539 1540 1540 1540 1540 1541 1541 1541 1541 1541 1541 1541 1541 1540 1540 1539
1526 1526 1527 1527 1527 1528 1528 1529 1529 1530 1530 1531 1531 1532 1532 1533 1533 1534 1534 1535 1536 1535 1536 1537 1537 1537 1538 1538 1539 1539 1540 1540 1540 1541 1541 1541 1541 1541 1540 1540 1539 1539 1539
1524 1524 1524 1525 1525 1526 1526 1527 1527 1528 1528 1529 1529 1530 1530 1531 1531 1532 1533 1533 1534 1534 1534 1535 1536 1536 1537 1537 1538 1538 1539 1539 1540 1540 1540 1540 1540 1540 1540 1539 1539 1539 1538
1521 1521 1522 1522 1523 1523 1524 1524 1525 1526 1526 1526 1527 1528 1528 1529 1529 1530 1531 1531 1532 1533 1533 1533 1534 1535 1535 1536 1536 1537 1538 1538 1538 1539 1539 1539 1539 1539 1539 1538 1538 1538 1538
1518 1519 1519 1520 1520 1521 1521 1522 1522 1523 1523 1524 1525 1525 1526 1526 1527 1528 1529 1529 1530 1531 1531 1531 1532 1533 1534 1534 1535 1535 1536 1537 1537 1537 1538 1538 1538 1538 1538 1538 1537 1537 1537
1516 1516 1516 1517 1517 1518 1518 1519 1520 1520 1521 1521 1522 1522 1523 1524 1525 1525 1526 1527 1528 1528 1529 1529 1530 1531 1532 1532 1533 1534 1534 1535 1535 1536 1536 1537 1537 1537 1537 1536 1536 1536 1536
1512 1513 1513 1513 1514 1515 1516 1516 1517 1518 1518 1519 1519 1520 1521 1521 1522 1523 1523 1524 1525 1526 1526 1527 1527 1528 1529 1530 1531 1531 1532 1533 1533 1534 1534 1535 1535 1535 1535 1535 1535 1535 1534
1510 1510 1510 1510 1511 1512 1512 1513 1514 1514 1515 1516 1516 1517 1518 1518 1519 1520 1521 1522 1522 1523 1523 1524 1525 1525 1526 1527 1528 1529 1529 1530 1531 1532 1532 1533 1533 1533 1533 1533 1533 1533 1533
1507 1507 1507 1507 1508 1508 1509 1510 1510 1511 1511 1512 1513 1514 1514 1515 1516 1517 1518 1519 1520 1520 1521 1521 1522 1522 1523 1524 1525 1526 1527 1527 1528 1529 1529 1530 1530 1530 1531 1531 1531 1531 1530
1504 1504 1504 1504 1504 1505 1506 1506 1507 1508 1508 1509 1510 1510 1511 1512 1513 1514 1515 1515 1516 1517 1518 1519 1519 1520 1521 1522 1523 1523 1524 1525 1525 1526 1527 1527 1527 1527 1528 1528 1528 1528 1528
1502 1502 1502 1502 1502 1502 1503 1503 1504 1504 1505 1505 1506 1507 1507 1508 1509 1510 1511 1512 1512 1513 1514 1515 1516 1517 1518 1519 1520 1521 1521 1522 1523 1523 1524 1523 1524 1524 1525 1525 1525 1525 1525
1499 1499 1499 1499 1499 1499 1500 1500 1501 1501 1501 1502 1503 1503 1504 1504 1505 1506 1507 1507 1508 1509 1511 1512 1513 1513 1514 1515 1516 1517 1517 1518 1518 1519 1520 1520 1520 1520 1521 1521 1521 1522 1522
1497 1497 1496 1496 1496 1497 1497 1497 1497 1497 1498 1498 1499 1499 1500 1500 1501 1502 1502 1503 1504 1505 1506 1508 1509 1510 1511 1511 1512 1513 1513 1514 1514 1515 1516 1516 1516 1517 1517 1517 1517 1518 1518